Satellite: CO-66
Catalog number: 32791
Epoch time:      09057.37246540
Element set:     283
Inclination:      097.9592 deg
RA of node:       122.1013 deg
Eccentricity:    0.0016845
Arg of perigee:   034.2909 deg
Mean anomaly:     325.9385 deg
Mean motion:   14.81392192 rev/day
Decay rate:       1.02e-06 rev/day^2
Epoch rev:            4500
Checksum:              298

Satellite: RS-30
Catalog number: 32953
Epoch time:      09056.79206119
Element set:    0241
Inclination:      082.5065 deg
RA of node:       325.8918 deg
Eccentricity:    0.0020245
Arg of perigee:   061.6356 deg
Mean anomaly:     298.6759 deg
Mean motion:   12.42999798 rev/day
Decay rate:        1.0e-07 rev/day^2
Epoch rev:           03455
Checksum:              324

/EX






More information about the Keps mailing list